RYR1729 LDDU-LCPH

Flight info

Callsign RYR1729
Flight time N/A
Altitude 35000
Route BEVIS1V/29 BEVIS DCT EBELA DCT PITAS DCT MALED DCT GARTA DCT XANIS DCT ATV UL607 KEA UL995 RDS UM601 EVENO M601 DASNI/N0463F330 DCT TOBAL
Aircraft B738/M-SDE2E3FGHIRWXY/LB1

Departure

Time 2026-04-27 17:51
Airport Dubrovnik Ruđer Bošković Airport (LDDU)

Arrival

Time N/A
Airport Paphos International Airport (LCPH)
Time Latitude Longitude Altitude Speed Heading
2026-04-27 17:07 42.56141 18.26150 521 ft 0 kts 209°
2026-04-27 17:43 42.56143 18.26152 520 ft 2 kts 210°
2026-04-27 17:43 42.56152 18.26159 521 ft 1 kts 209°
2026-04-27 17:43 42.56165 18.26166 521 ft 2 kts 188°
2026-04-27 17:44 42.56180 18.26167 521 ft 2 kts 170°
2026-04-27 17:44 42.56194 18.26160 522 ft 2 kts 150°
2026-04-27 17:44 42.56206 18.26148 522 ft 2 kts 130°
2026-04-27 17:44 42.56211 18.26139 522 ft 1 kts 119°
2026-04-27 17:45 42.56213 18.26132 522 ft 0 kts 118°
2026-04-27 17:47 42.56212 18.26135 522 ft 0 kts 118°
2026-04-27 17:47 42.56206 18.26150 522 ft 4 kts 118°
2026-04-27 17:47 42.56165 18.26251 521 ft 13 kts 118°
2026-04-27 17:47 42.56110 18.26388 519 ft 19 kts 118°
2026-04-27 17:48 42.56038 18.26571 516 ft 22 kts 118°
2026-04-27 17:48 42.55964 18.26760 514 ft 22 kts 118°
2026-04-27 17:48 42.55884 18.26959 511 ft 25 kts 118°
2026-04-27 17:48 42.55798 18.27179 508 ft 26 kts 118°
2026-04-27 17:49 42.55708 18.27405 502 ft 28 kts 118°
2026-04-27 17:49 42.55621 18.27625 494 ft 25 kts 119°
2026-04-27 17:49 42.55536 18.27833 489 ft 25 kts 119°
2026-04-27 17:49 42.55458 18.28040 487 ft 21 kts 101°
2026-04-27 17:50 42.55556 18.28161 481 ft 20 kts
2026-04-27 17:50 42.55992 18.27179 508 ft 128 kts 297°
2026-04-27 17:50 42.56473 18.25956 677 ft 155 kts 297°
2026-04-27 17:51 42.57008 18.24596 1000 ft 167 kts 298°
2026-04-27 17:51 42.57589 18.23137 1580 ft 187 kts 298°
2026-04-27 17:51 42.58255 18.21462 2079 ft 214 kts 298°
2026-04-27 17:51 42.58968 18.19658 2569 ft 228 kts 298°
2026-04-27 17:52 42.59737 18.17703 3211 ft 243 kts 298°
2026-04-27 17:52 42.60233 18.15513 3814 ft 257 kts 271°
2026-04-27 17:52 42.59795 18.13141 4438 ft 267 kts 239°
2026-04-27 17:52 42.58513 18.11291 5086 ft 274 kts 215°
2026-04-27 17:53 42.56755 18.10324 5702 ft 280 kts 188°
2026-04-27 17:53 42.54832 18.10585 6316 ft 285 kts 156°
2026-04-27 17:53 42.53136 18.11968 6977 ft 287 kts 142°
2026-04-27 17:53 42.51524 18.13541 7583 ft 291 kts 154°
2026-04-27 17:54 42.49599 18.14339 8220 ft 292 kts 171°
2026-04-27 17:54 42.47578 18.14611 8904 ft 296 kts 177°
2026-04-27 17:54 42.45517 18.14751 9578 ft 299 kts 177°
2026-04-27 17:54 42.43424 18.14896 10273 ft 304 kts 176°
2026-04-27 17:55 42.41235 18.15070 10512 ft 329 kts 176°
2026-04-27 17:55 42.38876 18.15276 10683 ft 354 kts 176°
2026-04-27 17:55 42.36378 18.15502 11206 ft 367 kts 176°
2026-04-27 17:55 42.33839 18.15734 11943 ft 373 kts 175°
2026-04-27 17:56 42.31231 18.15973 12666 ft 380 kts 175°
2026-04-27 17:56 42.28593 18.16215 13404 ft 385 kts 175°
2026-04-27 17:56 42.25879 18.16464 14111 ft 392 kts 175°
2026-04-27 17:56 42.23152 18.16714 14810 ft 397 kts 175°
2026-04-27 17:57 42.20414 18.16965 15472 ft 403 kts 175°
2026-04-27 17:57 42.17596 18.17224 16132 ft 409 kts 175°
2026-04-27 17:57 42.14757 18.17484 16779 ft 415 kts 175°
2026-04-27 17:57 42.11858 18.17749 17411 ft 420 kts 175°
2026-04-27 17:58 42.08939 18.18016 18020 ft 426 kts 175°
2026-04-27 17:58 42.05974 18.18286 18636 ft 431 kts 175°
2026-04-27 17:58 42.02976 18.18560 19216 ft 437 kts 175°
2026-04-27 17:58 41.99903 18.18856 19811 ft 442 kts 173°
2026-04-27 17:59 41.96874 18.19439 20359 ft 447 kts 167°
2026-04-27 17:59 41.93864 18.20498 20913 ft 450 kts 159°
2026-04-27 17:59 41.91029 18.22227 21446 ft 450 kts 146°
2026-04-27 17:59 41.88385 18.24535 22044 ft 452 kts 141°
2026-04-27 18:00 41.85806 18.26963 22491 ft 458 kts 141°
2026-04-27 18:00 41.83216 18.29440 23000 ft 462 kts 140°
2026-04-27 18:00 41.80607 18.31947 23519 ft 466 kts 140°
2026-04-27 18:00 41.77993 18.34467 23974 ft 471 kts 140°
2026-04-27 18:01 41.75314 18.37053 24476 ft 475 kts 140°
2026-04-27 18:01 41.72638 18.39641 24922 ft 479 kts 140°
2026-04-27 18:01 41.69922 18.42268 25393 ft 483 kts 139°
2026-04-27 18:01 41.67195 18.44906 25783 ft 489 kts 139°
2026-04-27 18:02 41.64427 18.47584 26151 ft 494 kts 139°
2026-04-27 18:02 41.61657 18.50261 26498 ft 500 kts 139°
2026-04-27 18:02 41.58813 18.53010 26855 ft 505 kts 139°
2026-04-27 18:02 41.55962 18.55761 27231 ft 510 kts 139°
2026-04-27 18:03 41.53067 18.58552 27625 ft 513 kts 139°
2026-04-27 18:03 41.50178 18.61335 28146 ft 513 kts 139°
2026-04-27 18:03 41.47284 18.64119 28677 ft 513 kts 139°
2026-04-27 18:03 41.44431 18.66864 29034 ft 516 kts 139°
2026-04-27 18:04 41.41526 18.69660 29447 ft 518 kts 139°
2026-04-27 18:04 41.38586 18.72485 29939 ft 517 kts 139°
2026-04-27 18:04 41.35689 18.75266 30359 ft 518 kts 139°
2026-04-27 18:04 41.32780 18.78055 30670 ft 522 kts 139°
2026-04-27 18:05 41.29805 18.80903 31072 ft 522 kts 139°
2026-04-27 18:05 41.26884 18.83694 31502 ft 522 kts 139°
2026-04-27 18:05 41.23977 18.86468 31863 ft 523 kts 139°
2026-04-27 18:05 41.21026 18.89244 32137 ft 526 kts 139°
2026-04-27 18:06 41.17941 18.91898 32370 ft 533 kts 145°
2026-04-27 18:06 41.14763 18.94286 32827 ft 531 kts 147°
2026-04-27 18:06 41.11528 18.96670 33260 ft 529 kts 147°
2026-04-27 18:06 41.08343 18.99013 33789 ft 525 kts 147°
2026-04-27 18:07 41.05185 19.01334 34378 ft 518 kts 147°
2026-04-27 18:07 41.02051 19.03636 34864 ft 514 kts 147°
2026-04-27 18:07 40.98944 19.05918 35083 ft 515 kts 147°
2026-04-27 18:07 40.95797 19.08228 35070 ft 515 kts 147°
2026-04-27 18:08 40.89658 19.12724 35074 ft 502 kts 148°
2026-04-27 18:08 40.83657 19.17110 35074 ft 495 kts 148°
2026-04-27 18:09 40.77843 19.21806 35063 ft 483 kts 134°
2026-04-27 18:09 40.75689 19.25084 35078 ft 476 kts 118°
2026-04-27 18:09 40.74090 19.28911 35089 ft 476 kts 111°
2026-04-27 18:10 40.71346 19.36664 35072 ft 475 kts 110°